Liberal, KS

3:03 PM CST on November 24, 2017 (GMT -0600)
Liberal Municipal

Weather History for KLBL - January, 2014

Change the Weather History Date:

Sunday, January 26, 2014

  Actual Average Record
Temperature  
Mean Temperature 42 °F -  
Max Temperature 59 °F 48 °F 81 °F (1951)
Min Temperature 24 °F 22 °F 0 °F (1940)
Degree Days  
Heating Degree Days 24    
Moisture  
Dew Point 21 °F    
Average Humidity 48    
Maximum Humidity 74    
Minimum Humidity 23    
Precipitation  
Precipitation 0.00 in - - ()
Sea Level Pressure  
Sea Level Pressure 29.87 in    
Wind  
Wind Speed 11 mph (NNW)    
Max Wind Speed 33 mph    
Max Gust Speed 41 mph    
Visibility 10 miles    
Events      
Averages and records for this station are not official NWS values.
T = Trace of Precipitation, MM = Missing Value Source: NWS Daily Summary

Daily Weather History Graph

Daily Weather History Graph

Search for Another Location

Airport or City:

Trip Planner

Search our weather history database for the weather conditions in past years. The results will help you decide how hot, cold, wet, or windy it might be!

Date:

Astronomy

Jan. 26, 2014 Rise Set
Actual Time 7:50 AM CST 6:02 PM CST
Civil Twilight 7:23 AM CST 6:30 PM CST
Nautical Twilight 6:51 AM CST 7:01 PM CST
Astronomical Twilight 6:20 AM CST 7:32 PM CST
Moon 3:29 AM CST (1/26) 1:54 PM CST (1/26)
Length of Visible Light 11h 07m
Length of Day
10h 11m
Waning Crescent, 23% of the Moon is Illuminated
Jan 26
Waning Crescent
Jan 30
New
Feb 6
First Quarter
Feb 14
Full
Feb 22
Last Quarter

Hourly Weather History & Observations

Time (CST) Temp. Windchill Dew Point Humidity Pressure Visibility Wind Dir Wind Speed Gust Speed Precip Events Conditions
12:15 AM 33.8 °F 26.4 °F 21.2 °F 60% 29.88 in 10.0 mi SW 9.2 mph - N/A   Clear
12:35 AM 32.0 °F 24.8 °F 19.4 °F 60% 29.87 in 10.0 mi SW 8.1 mph - N/A   Clear
12:55 AM 30.2 °F 23.4 °F 19.4 °F 64% 29.87 in 10.0 mi SW 6.9 mph - N/A   Clear
1:15 AM 28.4 °F 23.3 °F 17.6 °F 64% 29.85 in 10.0 mi SW 4.6 mph - N/A   Clear
1:35 AM 28.4 °F 23.3 °F 17.6 °F 64% 29.84 in 10.0 mi WSW 4.6 mph - N/A   Clear
1:55 AM 28.4 °F 23.3 °F 17.6 °F 64% 29.83 in 10.0 mi WSW 4.6 mph - N/A   Clear
2:15 AM 28.4 °F 21.2 °F 19.4 °F 69% 29.83 in 10.0 mi WSW 6.9 mph - N/A   Clear
2:35 AM 26.6 °F 21.2 °F 17.6 °F 69% 29.83 in 10.0 mi West 4.6 mph - N/A   Clear
2:55 AM 26.6 °F 19.1 °F 17.6 °F 69% 29.83 in 10.0 mi West 6.9 mph - N/A   Clear
3:15 AM 26.6 °F 21.2 °F 17.6 °F 69% 29.82 in 10.0 mi WNW 4.6 mph - N/A   Clear
3:35 AM 26.6 °F 17.5 °F 17.6 °F 69% 29.82 in 10.0 mi West 9.2 mph - N/A   Clear
3:55 AM 26.6 °F 22.6 °F 19.4 °F 74% 29.81 in 10.0 mi WNW 3.5 mph - N/A   Clear
4:15 AM 24.8 °F 16.9 °F 17.6 °F 74% 29.81 in 10.0 mi WNW 6.9 mph - N/A   Clear
4:35 AM 26.6 °F 17.5 °F 17.6 °F 69% 29.81 in 10.0 mi WNW 9.2 mph - N/A   Clear
4:55 AM 30.2 °F 20.2 °F 21.2 °F 69% 29.81 in 10.0 mi WNW 12.7 mph - N/A   Clear
5:15 AM 33.8 °F 25.3 °F 23.0 °F 65% 29.80 in 10.0 mi NW 11.5 mph - N/A   Clear
5:35 AM 32.0 °F 22.5 °F 23.0 °F 69% 29.81 in 10.0 mi NW 12.7 mph - N/A   Clear
5:55 AM 33.8 °F 24.3 °F 23.0 °F 65% 29.82 in 10.0 mi NW 13.8 mph - N/A   Clear
6:15 AM 33.8 °F 25.3 °F 23.0 °F 65% 29.83 in 10.0 mi NW 11.5 mph - N/A   Clear
6:35 AM 33.8 °F 25.8 °F 21.2 °F 60% 29.83 in 10.0 mi NW 10.4 mph - N/A   Clear
6:55 AM 32.0 °F 23.0 °F 21.2 °F 64% 29.83 in 10.0 mi NW 11.5 mph - N/A   Clear
7:15 AM 33.8 °F 24.3 °F 21.2 °F 60% 29.83 in 10.0 mi NW 13.8 mph - N/A   Clear
7:35 AM 33.8 °F 24.3 °F 21.2 °F 60% 29.84 in 10.0 mi NW 13.8 mph - N/A   Clear
7:55 AM 33.8 °F 24.3 °F 21.2 °F 60% 29.85 in 10.0 mi NW 13.8 mph - N/A   Clear
8:15 AM 35.6 °F 26.2 °F 23.0 °F 60% 29.85 in 10.0 mi NW 15.0 mph - N/A   Clear
8:35 AM 37.4 °F 28.9 °F 24.8 °F 60% 29.86 in 10.0 mi WNW 13.8 mph - N/A   Clear
8:55 AM 39.2 °F 30.5 °F 26.6 °F 61% 29.86 in 10.0 mi WNW 16.1 mph - N/A   Clear
9:15 AM 42.8 °F 34.8 °F 26.6 °F 53% 29.87 in 10.0 mi WNW 17.3 mph - N/A   Clear
9:35 AM 44.6 °F 36.6 °F 26.6 °F 49% 29.86 in 10.0 mi WNW 19.6 mph - N/A   Clear
9:55 AM 46.4 °F 38.3 °F 28.4 °F 50% 29.87 in 10.0 mi WNW 23.0 mph - N/A   Clear
10:15 AM 48.2 °F - 28.4 °F 46% 29.87 in 10.0 mi WNW 23.0 mph - N/A   Clear
10:35 AM 50.0 °F - 28.4 °F 43% 29.87 in 10.0 mi North 23.0 mph - N/A   Clear
10:55 AM 51.8 °F - 28.4 °F 41% 29.87 in 10.0 mi North 19.6 mph - N/A   Clear
11:15 AM 53.6 °F - 28.4 °F 38% 29.87 in 10.0 mi NNE 16.1 mph - N/A   Clear
11:35 AM 53.6 °F - 28.4 °F 38% 29.87 in 10.0 mi NNE 13.8 mph - N/A   Clear
11:55 AM 55.4 °F - 28.4 °F 36% 29.86 in 10.0 mi NNE 11.5 mph - N/A   Clear
12:15 PM 55.4 °F - 28.4 °F 36% 29.86 in 10.0 mi NNE 12.7 mph - N/A   Clear
12:35 PM 55.4 °F - 26.6 °F 33% 29.85 in 10.0 mi North 8.1 mph - N/A   Clear
12:55 PM 57.2 °F - 28.4 °F 33% 29.84 in 10.0 mi NNE 9.2 mph 17.3 mph N/A   Clear
1:15 PM 57.2 °F - 28.4 °F 33% 29.83 in 10.0 mi North 12.7 mph - N/A   Clear
1:35 PM 59.0 °F - 26.6 °F 29% 29.81 in 10.0 mi North 15.0 mph - N/A   Clear
1:55 PM 59.0 °F - 26.6 °F 29% 29.80 in 10.0 mi NNE 9.2 mph - N/A   Clear
2:15 PM 59.0 °F - 24.8 °F 27% 29.78 in 10.0 mi NNE 9.2 mph - N/A   Clear
2:35 PM 59.0 °F - 24.8 °F 27% 29.78 in 10.0 mi NNE 9.2 mph - N/A   Clear
2:55 PM 59.0 °F - 24.8 °F 27% 29.78 in 10.0 mi NNE 6.9 mph - N/A   Clear
3:15 PM 59.0 °F - 23.0 °F 25% 29.78 in 10.0 mi NNE 8.1 mph - N/A   Clear
3:35 PM 59.0 °F - 23.0 °F 25% 29.77 in 10.0 mi NNE 4.6 mph - N/A   Clear
3:55 PM 57.2 °F - 21.2 °F 25% 29.77 in 10.0 mi NNE 8.1 mph - N/A   Clear
4:15 PM 59.0 °F - 21.2 °F 23% 29.77 in 10.0 mi North 8.1 mph - N/A   Clear
4:35 PM 59.0 °F - 23.0 °F 25% 29.78 in 10.0 mi North 8.1 mph - N/A   Clear
4:55 PM 57.2 °F - 23.0 °F 27% 29.78 in 10.0 mi NNE 6.9 mph - N/A   Clear
5:15 PM 57.2 °F - 21.2 °F 25% 29.79 in 10.0 mi NNE 5.8 mph - N/A   Clear
5:35 PM 55.4 °F - 21.2 °F 26% 29.80 in 10.0 mi NNE 8.1 mph - N/A   Clear
5:55 PM 53.6 °F - 21.2 °F 28% 29.81 in 10.0 mi NNE 6.9 mph - N/A   Clear
6:15 PM 51.8 °F - 21.2 °F 30% 29.82 in 10.0 mi NNE 8.1 mph - N/A   Clear
6:35 PM 46.4 °F 42.4 °F 19.4 °F 34% 29.83 in 10.0 mi NNE 8.1 mph - N/A   Clear
6:55 PM 46.4 °F 41.5 °F 19.4 °F 34% 29.85 in 10.0 mi NNE 10.4 mph - N/A   Clear
7:15 PM 44.6 °F 40.2 °F 19.4 °F 37% 29.87 in 10.0 mi NNE 8.1 mph - N/A   Clear
7:35 PM 42.8 °F 38.6 °F 19.4 °F 39% 29.88 in 10.0 mi NNE 6.9 mph - N/A   Clear
7:55 PM 39.2 °F 35.9 °F 17.6 °F 42% 29.89 in 10.0 mi NNE 4.6 mph - N/A   Clear
8:15 PM 37.4 °F 34.9 °F 17.6 °F 45% 29.90 in 10.0 mi NNE 3.5 mph - N/A   Clear
8:35 PM - - - N/A% 29.97 in 3.0 mi NNE 31.1 mph 41.4 mph N/A   Partly Cloudy
8:55 PM 39.2 °F 27.6 °F 23.0 °F 52% 30.02 in 5.0 mi NNE 28.8 mph 40.3 mph N/A   Clear
9:15 PM 35.6 °F 21.9 °F 17.6 °F 48% 30.04 in 8.0 mi NNE 33.4 mph 39.1 mph N/A   Clear
9:35 PM 33.8 °F 22.2 °F 17.6 °F 52% 30.06 in 10.0 mi NNE 20.7 mph 31.1 mph N/A   Clear
9:55 PM 32.0 °F 18.1 °F 15.8 °F 51% 30.08 in 10.0 mi NNE 27.6 mph 34.5 mph N/A   Clear
10:15 PM 30.2 °F 15.4 °F 15.8 °F 55% 30.09 in 10.0 mi NNE 28.8 mph 35.7 mph N/A   Clear
10:35 PM 30.2 °F 15.9 °F 14.0 °F 51% 30.11 in 10.0 mi NNE 26.5 mph 33.4 mph N/A   Clear
10:55 PM 30.2 °F 15.9 °F 12.2 °F 47% 30.13 in 10.0 mi NNE 26.5 mph 39.1 mph N/A   Clear
11:15 PM 28.4 °F 16.6 °F 12.2 °F 51% 30.15 in 10.0 mi NNE 16.1 mph - N/A   Clear
11:35 PM 28.4 °F 15.1 °F 12.2 °F 51% 30.16 in 10.0 mi NE 20.7 mph 25.3 mph N/A   Clear
11:55 PM 28.4 °F 13.8 °F 10.4 °F 47% 30.18 in 10.0 mi NE 25.3 mph 32.2 mph N/A   Scattered Clouds